Weather History for KFZY - December, 2013

Change the Weather History Date:

Thursday, December 12, 2013

  Actual Average (KSYR) Record (KSYR)
Temperature  
Mean Temperature 14 °F 30 °F  
Max Temperature 19 °F 37 °F 61 °F (1979)
Min Temperature 8 °F 24 °F -10 °F (1988)
Degree Days  
Heating Degree Days 52 34  
Month to date heating degree days 388  
Since 1 July heating degree days 1737  
Cooling Degree Days 0 0  
Month to date cooling degree days 0  
Year to date cooling degree days 569  
Moisture  
Dew Point 8 °F    
Average Humidity 69    
Maximum Humidity 85    
Minimum Humidity 52    
Precipitation  
Precipitation 0.00 in 0.11 in 1.23 in (1983)
Month to date precipitation 1.36  
Year to date precipitation 36.61  
Snow  
Snow 0.00 in 1.10 in 6.10 in (2003)
Month to date snowfall 11.7  
Since 1 July snowfall 21.6  
Snow Depth -    
Sea Level Pressure  
Sea Level Pressure 30.20 in    
Wind  
Wind Speed 8 mph (SW)    
Max Wind Speed 28 mph    
Max Gust Speed 32 mph    
Visibility 7 miles    
Events Snow    
T = Trace of Precipitation, MM = Missing Value Source: NWS Daily Summary

Daily Weather History Graph

Daily Weather History Graph

Search for Another Location

Airport or City:

Trip Planner

Search our weather history database for the weather conditions in past years. The results will help you decide how hot, cold, wet, or windy it might be!

Date:

Astronomy

Dec. 12, 2013 Rise Set
Actual Time 7:28 AM EST 4:29 PM EST
Civil Twilight 6:56 AM EST 5:02 PM EST
Nautical Twilight 6:20 AM EST 5:38 PM EST
Astronomical Twilight 5:45 AM EST 6:13 PM EST
Moon 1:41 PM EST (12/12) 2:43 AM EST (12/12)
Length of Visible Light 10h 05m
Length of Day
9h 00m
Waxing Gibbous, 80% of the Moon is Illuminated
Dec 12
Waxing Gibbous
Dec 17
Full
Dec 25
Last Quarter
Jan 1
New
Jan 7
First Quarter

Hourly Weather History & Observations

Time (EST) Temp. Windchill Dew Point Humidity Pressure Visibility Wind Dir Wind Speed Gust Speed Precip Events Conditions
12:54 AM 19.0 °F 11.1 °F 9.0 °F 65% 30.26 in 10.0 mi NW 5.8 mph - N/A   Overcast
1:54 AM 19.0 °F 11.1 °F 7.0 °F 59% 30.28 in 10.0 mi NNW 5.8 mph - N/A   Overcast
2:54 AM 17.1 °F 10.0 °F 6.1 °F 62% 30.30 in 10.0 mi North 4.6 mph - N/A   Overcast
3:54 AM 16.0 °F 10.4 °F 5.0 °F 62% 30.30 in 10.0 mi NNW 3.5 mph - N/A   Overcast
4:54 AM 12.9 °F 6.9 °F 3.9 °F 67% 30.30 in 10.0 mi ESE 3.5 mph - N/A   Overcast
5:54 AM 8.1 °F - 3.9 °F 83% 30.32 in 10.0 mi Calm Calm - N/A   Overcast
6:54 AM 10.0 °F - 6.1 °F 84% 30.33 in 10.0 mi Calm Calm - N/A   Overcast
7:54 AM 9.0 °F - 5.0 °F 84% 30.33 in 9.0 mi Calm Calm - N/A   Overcast
8:14 AM 10.4 °F 4.0 °F 5.0 °F 79% 30.29 in 5.0 mi ESE 3.5 mph - N/A   Haze
8:42 AM 10.4 °F - 6.8 °F 85% 30.29 in 10.0 mi Calm Calm - N/A   Mostly Cloudy
8:54 AM 10.9 °F - 7.0 °F 84% 30.32 in 10.0 mi Calm Calm - N/A   Mostly Cloudy
9:43 AM 15.8 °F 6.1 °F 10.4 °F 79% 30.29 in 1.8 mi South 6.9 mph - 0.00 in Snow Light Snow
9:54 AM 15.1 °F 4.2 °F 10.0 °F 80% 30.32 in 1.5 mi SSW 8.1 mph - 0.00 in Snow Light Snow
10:16 AM 15.8 °F 4.2 °F 10.4 °F 79% 30.28 in 3.0 mi SSW 9.2 mph - 0.00 in Snow Light Snow
10:29 AM 15.8 °F 3.4 °F 8.6 °F 73% 30.27 in 10.0 mi SSW 10.4 mph - 0.00 in   Scattered Clouds
10:54 AM 17.1 °F 6.6 °F 8.1 °F 68% 30.28 in 10.0 mi SSW 8.1 mph - 0.00 in   Clear
11:54 AM 19.0 °F 5.6 °F 6.1 °F 57% 30.25 in 10.0 mi SW 13.8 mph - N/A   Clear
12:54 PM 19.9 °F 5.7 °F 5.0 °F 52% 30.23 in 10.0 mi SW 16.1 mph - N/A   Clear
1:17 PM 19.4 °F 1.1 °F 6.8 °F 58% 30.20 in 1.8 mi WSW 27.6 mph 32.2 mph 0.00 in   Clear
1:27 PM 19.4 °F 4.5 °F 6.8 °F 58% 30.20 in 3.0 mi West 17.3 mph 27.6 mph 0.00 in   Clear
1:54 PM 19.0 °F 2.4 °F 5.0 °F 54% 30.21 in 4.0 mi WSW 21.9 mph 29.9 mph 0.00 in   Haze
2:54 PM 19.0 °F 7.5 °F 6.1 °F 57% 30.19 in 10.0 mi SW 10.4 mph 24.2 mph N/A   Mostly Cloudy
3:54 PM 19.0 °F 5.0 °F 5.0 °F 54% 30.18 in 10.0 mi WSW 15.0 mph 24.2 mph N/A   Overcast
4:54 PM 18.0 °F 4.2 °F 7.0 °F 62% 30.17 in 10.0 mi WSW 13.8 mph 23.0 mph N/A   Overcast
5:52 PM 17.6 °F 3.7 °F 8.6 °F 68% 30.13 in 2.5 mi SW 13.8 mph - 0.00 in Snow Light Snow
5:54 PM 18.0 °F 4.2 °F 9.0 °F 68% 30.16 in 2.5 mi SW 13.8 mph - 0.00 in Snow Light Snow
6:11 PM 17.6 °F 5.0 °F 10.4 °F 73% 30.13 in 1.8 mi SW 11.5 mph - 0.00 in Snow Light Snow
6:30 PM 17.6 °F 5.0 °F 10.4 °F 73% 30.12 in 2.0 mi SW 11.5 mph - 0.00 in Snow Light Snow
6:41 PM 17.6 °F 5.7 °F 10.4 °F 73% 30.12 in 3.0 mi WSW 10.4 mph - 0.00 in Snow Light Snow
6:51 PM 17.6 °F 5.0 °F 10.4 °F 73% 30.11 in 2.5 mi SW 11.5 mph - 0.00 in Snow Light Snow
6:54 PM 17.1 °F 5.8 °F 10.9 °F 77% 30.14 in 2.0 mi SW 9.2 mph - 0.00 in Snow Light Snow
7:01 PM 17.6 °F 6.4 °F 10.4 °F 73% 30.11 in 1.5 mi SW 9.2 mph - 0.00 in Snow Light Snow
7:17 PM 17.6 °F 8.2 °F 12.2 °F 79% 30.10 in 2.5 mi SSW 6.9 mph - 0.00 in Snow Light Snow
7:19 PM 17.6 °F 7.3 °F 12.2 °F 79% 30.10 in 3.0 mi SSW 8.1 mph - 0.00 in Snow Light Snow
7:54 PM 17.1 °F 4.3 °F 10.0 °F 74% 30.11 in 10.0 mi SW 11.5 mph - 0.00 in   Overcast
8:54 PM 19.0 °F 9.0 °F 9.0 °F 65% 30.08 in 10.0 mi SSW 8.1 mph 17.3 mph N/A   Overcast
9:54 PM 19.0 °F 6.1 °F 9.0 °F 65% 30.06 in 10.0 mi SSW 12.7 mph - 0.00 in   Overcast
10:54 PM 19.9 °F 5.2 °F 9.0 °F 62% 30.02 in 9.0 mi SW 17.3 mph 29.9 mph 0.00 in   Overcast
11:54 PM 19.9 °F 5.2 °F 9.0 °F 62% 30.01 in 10.0 mi WSW 17.3 mph 26.5 mph N/A   Overcast